Weather in Perekopivka

Ukraine / Sumi District     50°36′42″N   33°25′29″E
temp.,
°C
wind,
m/s
gust,
m/s
humid.,
%
clouds,
%
prec.,
mm/h
press.,
hPa
HPBL,
m
27 october, wed
wed2700:00+3ssw411658 0.0 1028199
03:00+2ssw411685 0.0 1028197
06:00+1ssw512740 0.0 1026244
09:00+3ssw512730 0.0 1026367
12:00+8sw6106823 0.0 1025718
15:00+10wsw676021 0.0 10231040
18:00+7w347499 0.0 102345
21:00+8w246394 0.0 1024109
28 october, thu
thu2800:00+5wnw337895 0.0 102428
03:00+5wsw348789 0.0 102460
06:00+5wsw3891100 0.0 1023160
09:00+7sw51180100 0.1 1022330
12:00+11w71069100 0.0 1021596
15:00+11wnw51073100 0.0 1021655
18:00+10wnw5980100 0.0 1022440
21:00+9nw498888 0.0 1023363
29 october, fri
fri2900:00+8nw369221 0.0 1024127
03:00+6n36965 0.0 1025108
06:00+5nne34945 0.0 102781
09:00+6ne25835 0.0 1028145
12:00+11ene34570 0.0 1029618
15:00+12e23520 0.0 1029881
18:00+8e23690 0.0 102920
21:00+7ese34820 0.0 103053
30 october, sat
sat3000:00+5se35890 0.0 103181
03:00+5se35910 0.0 103175
06:00+4se35922 0.0 103265
09:00+5sse36860 0.0 1033156
12:00+11sse45610 0.0 1032541
15:00+13sse45530 0.0 1031874
18:00+9se33690 0.0 103135
21:00+7sse34710 0.0 103249
31 october, sun
sun3100:00+6sse34750 0.0 103248
03:00+5se33770 0.0 103237
05:00+4se33800 0.0 103140
08:00+5se36800 0.0 1031161
11:00+11se57590 0.0 1030584
14:00+13se45490 0.0 1027814
17:00+8ese35630 0.0 102764
20:00+7ese49720 0.0 1026151